Regional Weather Roundup
Issued by NWS Raleigh/Durham, NC

Home | Current Version | Previous Version | Text Only | Print | Product List | Glossary On
Versions: 1 2 3 4 5 6 7 8 9 10 11 12 13 14 15 16 17 18 19 20 21 22 23 24 25 26 27 28
000
ASUS42 KRAH 231510
RWRRAH
NORTH CAROLINA WEATHER ROUNDUP
NATIONAL WEATHER SERVICE RALEIGH NC
1100 AM EDT WED MAY 23 2018

NOTE: "FAIR" INDICATES FEW OR NO CLOUDS BELOW 12,000 FEET WITH NO
SIGNIFICANT WEATHER AND/OR OBSTRUCTIONS TO VISIBILITY.

NCZ001-053-055-056-065-067-231600-
WESTERN NORTH CAROLINA

CITY           SKY/WX    TMP DP  RH WIND       PRES   REMARKS
ASHEVILLE      FAIR      76  63  64 NW12      30.17S
JEFFERSON      FAIR      70  59  68 NW9       30.19S
MORGANTON      FAIR      77  67  70 CALM      30.15S
HICKORY        FAIR      77  69  76 CALM      30.10S
RUTHERFORDTON  FAIR      76  68  75 S3        30.12S
MOUNT AIRY     NOT AVBL
BOONE          FAIR      69  58  68 NW9G16    30.21R
$$

NCZ021-022-025-041-071-084-088-231600-
CENTRAL NORTH CAROLINA

CITY           SKY/WX    TMP DP  RH WIND       PRES   REMARKS
CHARLOTTE      FAIR      79  69  71 S7        30.10S
GREENSBORO     CLOUDY    79  69  71 VRB6      30.08S
WINSTON-SALEM  FAIR      78  68  71 VRB6      30.10R
RALEIGH-DURHAM PTSUNNY   79  72  79 W9        30.07S
FORT BRAGG     FAIR      82  68  61 SW10G20   30.06F
FAYETTEVILLE   FAIR      83  68  60 SW15      30.07F
BURLINGTON     FAIR      80  69  69 MISG      30.07S
LAURINBURG     FAIR      80  69  69 W13       30.09F
$$

NCZ011-015-027-028-043-044-047-080-103-231600-
NORTHEASTERN NORTH CAROLINA

CITY           SKY/WX    TMP DP  RH WIND       PRES   REMARKS
ROCKY MT-WILSO FAIR      79  70  74 SW12      30.05F
GREENVILLE     PTSUNNY   77  70  78 W10G18    30.08S
WASHINGTON     PTSUNNY   79  70  73 SW6G17    30.07S
ELIZABETH CITY FAIR      80  73  79 SW15G23   30.03S
MANTEO         FAIR      80  70  72 W12       30.05S
CAPE HATTERAS  FAIR      78  72  81 SW13      30.08S
$$

NCZ078-087-090-091-093-098-101-231600-
SOUTHEASTERN NORTH CAROLINA

CITY           SKY/WX    TMP DP  RH WIND       PRES   REMARKS
LUMBERTON      FAIR      81  68  64 SW12      30.09F
GOLDSBORO      PTSUNNY   79  71  75 SW9       30.06F
KINSTON        PTSUNNY   79  70  73 SW10      30.08F
KENANSVILLE    PTSUNNY   79  70  73 SW8       30.09S
NEW BERN       PTSUNNY   79  70  74 W8        30.09S
CHERRY POINT   PTSUNNY   83  72  69 W15       30.09S
BEAUFORT       FAIR      79  73  82 SW15      30.09S
JACKSONVILLE   FAIR      81  71  71 W12       30.08S
WILMINGTON     FAIR      82  69  64 W13       30.09F
$$





USA.gov is the U.S. government's official web portal to all federal, state and local government web resources and services.